Reading, PA

7:57 AM EDT on October 20, 2017 (GMT -0400)
Reading Regional-Spaatz

Weather History for KRDG - May, 2013

Change the Weather History Date:

Saturday, May 25, 2013

  Actual Average Record
Temperature  
Mean Temperature 55 °F 64 °F  
Max Temperature 64 °F 75 °F 93 °F (1904)
Min Temperature 46 °F 53 °F 38 °F (1956)
Degree Days  
Heating Degree Days 10 4  
Month to date heating degree days 125 153  
Since 1 July heating degree days 4970 5351  
Cooling Degree Days 0 2  
Month to date cooling degree days 45 35  
Year to date cooling degree days 60 44  
Growing Degree Days 4 (Base 50)    
Moisture  
Dew Point 34 °F    
Average Humidity 51    
Maximum Humidity 71    
Minimum Humidity 30    
Precipitation  
Precipitation 0.00 in 0.17 in 1.20 in (1952)
Month to date precipitation 3.16 3.24  
Year to date precipitation 12.74 16.02  
Sea Level Pressure  
Sea Level Pressure 30.07 in    
Wind  
Wind Speed 16 mph (NW)    
Max Wind Speed 32 mph    
Max Gust Speed 40 mph    
Visibility 10 miles    
Events      
T = Trace of Precipitation, MM = Missing Value Source: NWS Daily Summary

Daily Weather History Graph

Daily Weather History Graph

Search for Another Location

Airport or City:

Trip Planner

Search our weather history database for the weather conditions in past years. The results will help you decide how hot, cold, wet, or windy it might be!

Date:

Astronomy

May. 25, 2013 Rise Set
Actual Time 5:39 AM EDT 8:22 PM EDT
Civil Twilight 5:07 AM EDT 8:54 PM EDT
Nautical Twilight 4:27 AM EDT 9:34 PM EDT
Astronomical Twilight 3:42 AM EDT 10:19 PM EDT
Moon 9:08 PM EDT (5/25) 6:04 AM EDT (5/25)
Length of Visible Light 15h 46m
Length of Day
14h 43m
Full, 100% of the Moon is Illuminated
May 25
Full
May 31
Last Quarter
Jun 8
New
Jun 16
First Quarter
Jun 23
Full

Hourly Weather History & Observations

Time (EDT) Temp. Windchill Dew Point Humidity Pressure Visibility Wind Dir Wind Speed Gust Speed Precip Events Conditions
12:54 AM 48.0 °F - 39.0 °F 71% 30.07 in 10.0 mi WNW 11.5 mph - N/A   Overcast
1:54 AM 48.0 °F - 37.9 °F 68% 30.06 in 10.0 mi NW 10.4 mph - N/A   Overcast
2:54 AM 48.0 °F - 37.0 °F 66% 30.04 in 10.0 mi WNW 16.1 mph 20.7 mph N/A   Mostly Cloudy
3:54 AM 46.9 °F - 36.0 °F 66% 30.05 in 10.0 mi WNW 17.3 mph - N/A   Mostly Cloudy
4:54 AM 46.0 °F 39.6 °F 36.0 °F 68% 30.05 in 10.0 mi WNW 15.0 mph - N/A   Clear
5:54 AM 46.0 °F 42.5 °F 35.1 °F 66% 30.06 in 10.0 mi West 6.9 mph 18.4 mph N/A   Clear
6:54 AM 48.0 °F - 35.1 °F 61% 30.06 in 10.0 mi WNW 11.5 mph 21.9 mph N/A   Clear
7:54 AM 51.1 °F - 35.1 °F 54% 30.08 in 10.0 mi WNW 16.1 mph 23.0 mph N/A   Clear
8:54 AM 53.1 °F - 35.1 °F 50% 30.09 in 10.0 mi WNW 16.1 mph 26.5 mph N/A   Clear
9:54 AM 55.9 °F - 36.0 °F 47% 30.08 in 20.0 mi NW 25.3 mph 29.9 mph N/A   Scattered Clouds
10:54 AM 57.0 °F - 36.0 °F 45% 30.08 in 10.0 mi NNW 17.3 mph 29.9 mph N/A   Scattered Clouds
11:54 AM 59.0 °F - 34.0 °F 39% 30.08 in 10.0 mi NNW 21.9 mph 31.1 mph N/A   Scattered Clouds
12:54 PM 59.0 °F - 33.1 °F 38% 30.07 in 10.0 mi NW 23.0 mph 29.9 mph N/A   Overcast
1:54 PM 60.1 °F - 33.1 °F 36% 30.06 in 10.0 mi NW 18.4 mph 31.1 mph N/A   Overcast
2:54 PM 59.0 °F - 30.9 °F 35% 30.06 in 10.0 mi NW 25.3 mph 31.1 mph N/A   Mostly Cloudy
3:54 PM 63.0 °F - 32.0 °F 31% 30.04 in 10.0 mi NW 24.2 mph 32.2 mph N/A   Partly Cloudy
4:54 PM 63.0 °F - 32.0 °F 31% 30.04 in 10.0 mi NNW 18.4 mph 28.8 mph N/A   Partly Cloudy
5:54 PM 62.1 °F - 30.9 °F 31% 30.04 in 10.0 mi NNW 17.3 mph 28.8 mph N/A   Partly Cloudy
6:54 PM 61.0 °F - 33.1 °F 35% 30.05 in 10.0 mi NNW 11.5 mph 21.9 mph N/A   Partly Cloudy
7:54 PM 59.0 °F - 30.9 °F 35% 30.07 in 10.0 mi NNW 17.3 mph 24.2 mph N/A   Clear
8:54 PM 55.9 °F - 30.9 °F 39% 30.08 in 10.0 mi NNW 10.4 mph - N/A   Clear
9:54 PM 54.0 °F - 32.0 °F 43% 30.10 in 10.0 mi NNW 10.4 mph - N/A   Clear
10:54 PM 53.1 °F - 32.0 °F 45% 30.11 in 10.0 mi NW 9.2 mph - N/A   Clear
11:54 PM 51.1 °F - 34.0 °F 52% 30.10 in 10.0 mi West 5.8 mph - N/A   Clear